UAL2406 KIAH-KORD

Flight info

Callsign UAL2406
Flight time N/A
Altitude 35000
Route INDIE8 TPAKK LIT J180 FTZ SHAIN2
Aircraft B739/M-SDE2E3FGHIRWXY/LB1

Departure

Time 2026-05-01 14:23
Airport George Bush Intercontinental Airport (KIAH)

Arrival

Time N/A
Airport Chicago O'Hare International Airport (KORD)
Time Latitude Longitude Altitude Speed Heading
2026-05-01 13:57 29.98944 -95.34204 106 ft 0 kts 118°
2026-05-01 14:15 29.98951 -95.34219 106 ft 4 kts 107°
2026-05-01 14:15 29.98952 -95.34245 106 ft 4 kts 59°
2026-05-01 14:15 29.98934 -95.34260 104 ft 4 kts
2026-05-01 14:16 29.98910 -95.34261 104 ft 3 kts
2026-05-01 14:16 29.98907 -95.34261 104 ft 1 kts
2026-05-01 14:18 29.98927 -95.34261 105 ft 6 kts
2026-05-01 14:19 29.98981 -95.34261 106 ft 9 kts
2026-05-01 14:19 29.99049 -95.34261 106 ft 10 kts 355°
2026-05-01 14:19 29.99090 -95.34317 106 ft 10 kts 298°
2026-05-01 14:19 29.99155 -95.34347 106 ft 11 kts 333°
2026-05-01 14:20 29.99177 -95.34442 106 ft 15 kts 270°
2026-05-01 14:20 29.99177 -95.34741 106 ft 22 kts 270°
2026-05-01 14:20 29.99177 -95.34926 106 ft 24 kts 270°
2026-05-01 14:21 29.99176 -95.35109 106 ft 23 kts 270°
2026-05-01 14:21 29.99176 -95.35288 106 ft 22 kts 270°
2026-05-01 14:21 29.99177 -95.35412 106 ft 14 kts 270°
2026-05-01 14:22 29.99317 -95.35483 106 ft 8 kts
2026-05-01 14:22 29.99341 -95.35437 106 ft 7 kts 86°
2026-05-01 14:22 29.99342 -95.35333 106 ft 35 kts 90°
2026-05-01 14:22 29.99343 -95.34776 106 ft 102 kts 90°
2026-05-01 14:23 29.99348 -95.33737 108 ft 155 kts 86°
2026-05-01 14:23 29.99375 -95.32470 621 ft 166 kts 84°
2026-05-01 14:23 29.99456 -95.31136 1310 ft 162 kts 68°
2026-05-01 14:23 30.00122 -95.30161 2087 ft 158 kts 39°
2026-05-01 14:24 30.01231 -95.29611 2402 ft 188 kts 18°
2026-05-01 14:24 30.02584 -95.29178 2605 ft 213 kts 17°
2026-05-01 14:24 30.04079 -95.28724 3043 ft 225 kts 16°
2026-05-01 14:24 30.05652 -95.28258 3400 ft 245 kts 16°
2026-05-01 14:25 30.07360 -95.27741 3905 ft 260 kts 17°
2026-05-01 14:25 30.09136 -95.27197 4681 ft 268 kts 17°
2026-05-01 14:25 30.10967 -95.26633 5385 ft 277 kts 16°
2026-05-01 14:25 30.12853 -95.26051 6151 ft 284 kts 16°
2026-05-01 14:26 30.14786 -95.25455 6865 ft 290 kts 15°
2026-05-01 14:26 30.18767 -95.24229 8367 ft 300 kts 15°
2026-05-01 14:26 30.20802 -95.23599 9146 ft 304 kts 14°
2026-05-01 14:27 30.22862 -95.22961 9957 ft 308 kts 14°
2026-05-01 14:27 30.24932 -95.22322 10459 ft 322 kts 13°
2026-05-01 14:27 30.27184 -95.21615 10643 ft 347 kts 15°
2026-05-01 14:28 30.32117 -95.20079 11212 ft 381 kts 14°
2026-05-01 14:28 30.34689 -95.19275 11871 ft 386 kts 14°
2026-05-01 14:28 30.37293 -95.18466 12609 ft 387 kts 14°
2026-05-01 14:28 30.39911 -95.17677 13263 ft 390 kts 13°
2026-05-01 14:29 30.42557 -95.16886 13807 ft 396 kts 13°
2026-05-01 14:29 30.45206 -95.16004 14304 ft 402 kts 21°
2026-05-01 14:30 30.52670 -95.11366 15916 ft 410 kts 29°
2026-05-01 14:30 30.55196 -95.09745 16356 ft 415 kts 28°
2026-05-01 14:30 30.57755 -95.08161 16820 ft 420 kts 27°
2026-05-01 14:31 30.62937 -95.04911 17680 ft 429 kts 28°
2026-05-01 14:31 30.65562 -95.03254 18125 ft 429 kts 28°
2026-05-01 14:31 30.68204 -95.01583 18456 ft 436 kts 27°
2026-05-01 14:31 30.70884 -94.99891 18944 ft 436 kts 28°
2026-05-01 14:32 30.73535 -94.98156 19385 ft 441 kts 29°
2026-05-01 14:32 30.76230 -94.96419 19735 ft 444 kts 27°
2026-05-01 14:32 30.78951 -94.94659 20065 ft 450 kts 28°
2026-05-01 14:32 30.81689 -94.92859 20471 ft 453 kts 28°
2026-05-01 14:33 30.84437 -94.91057 20871 ft 456 kts 28°
2026-05-01 14:33 30.87217 -94.89247 21244 ft 459 kts 28°
2026-05-01 14:33 30.90012 -94.87435 21615 ft 462 kts 27°
2026-05-01 14:33 30.92833 -94.85609 21997 ft 465 kts 27°
2026-05-01 14:34 30.95675 -94.83771 22349 ft 468 kts 27°
2026-05-01 14:34 30.98533 -94.81925 22679 ft 471 kts 27°
2026-05-01 14:34 31.01371 -94.80087 22992 ft 475 kts 27°
2026-05-01 14:34 31.04263 -94.78206 23334 ft 477 kts 27°
2026-05-01 14:35 31.07168 -94.76320 23652 ft 480 kts 27°
2026-05-01 14:35 31.10103 -94.74416 23917 ft 483 kts 28°
2026-05-01 14:35 31.13039 -94.72506 24231 ft 484 kts 27°
2026-05-01 14:35 31.15988 -94.70597 24499 ft 485 kts 28°
2026-05-01 14:36 31.18952 -94.68668 24694 ft 488 kts 28°
2026-05-01 14:36 31.21920 -94.66715 24914 ft 492 kts 28°
2026-05-01 14:36 31.24916 -94.64758 25220 ft 493 kts 28°
2026-05-01 14:36 31.27915 -94.62805 25536 ft 494 kts 28°
2026-05-01 14:37 31.30928 -94.60841 25823 ft 497 kts 28°
2026-05-01 14:37 31.33955 -94.58866 26098 ft 499 kts 28°
2026-05-01 14:37 31.36998 -94.56880 26364 ft 501 kts 28°
2026-05-01 14:37 31.40048 -94.54887 26627 ft 504 kts 28°
2026-05-01 14:38 31.43116 -94.52878 26889 ft 507 kts 28°
2026-05-01 14:38 31.46200 -94.50854 27166 ft 509 kts 28°
2026-05-01 14:38 31.49299 -94.48819 27422 ft 512 kts 29°
2026-05-01 14:38 31.52384 -94.46730 27658 ft 514 kts 30°
2026-05-01 14:39 31.55469 -94.44587 27894 ft 516 kts 30°
2026-05-01 14:39 31.58555 -94.42419 28143 ft 519 kts 30°
2026-05-01 14:39 31.61658 -94.40233 28380 ft 521 kts 30°
2026-05-01 14:39 31.64778 -94.38038 28624 ft 523 kts 30°
2026-05-01 14:40 31.67868 -94.35873 28857 ft 525 kts 30°
2026-05-01 14:40 31.71017 -94.33669 29079 ft 527 kts 30°
2026-05-01 14:40 31.74170 -94.31463 29301 ft 530 kts 30°
2026-05-01 14:40 31.77350 -94.29240 29544 ft 532 kts 30°
2026-05-01 14:41 31.80539 -94.27015 29777 ft 533 kts 30°
2026-05-01 14:41 31.83739 -94.24776 30027 ft 536 kts 30°
2026-05-01 14:41 31.86938 -94.22531 30312 ft 536 kts 30°
2026-05-01 14:41 31.90142 -94.20280 30597 ft 536 kts 30°
2026-05-01 14:42 31.93346 -94.18030 30866 ft 537 kts 30°
2026-05-01 14:42 31.96558 -94.15774 31129 ft 537 kts 30°
2026-05-01 14:42 31.99769 -94.13517 31411 ft 538 kts 29°
2026-05-01 14:42 32.02983 -94.11257 31723 ft 538 kts 29°
2026-05-01 14:43 32.06205 -94.08989 32016 ft 538 kts 29°
2026-05-01 14:43 32.09422 -94.06720 32313 ft 539 kts 29°
2026-05-01 14:43 32.12639 -94.04451 32581 ft 539 kts 29°
2026-05-01 14:43 32.15862 -94.02173 32834 ft 540 kts 29°
2026-05-01 14:44 32.19081 -93.99897 33065 ft 541 kts 29°
2026-05-01 14:44 32.25511 -93.95341 33605 ft 542 kts 29°
2026-05-01 14:44 32.28737 -93.93053 33897 ft 541 kts 28°
2026-05-01 14:45 32.31966 -93.90764 34118 ft 543 kts 28°
2026-05-01 14:45 32.38449 -93.86172 34605 ft 542 kts 28°
2026-05-01 14:45 32.41686 -93.83879 34852 ft 542 kts 28°
2026-05-01 14:46 32.44927 -93.81572 35060 ft 543 kts 28°
2026-05-01 14:46 32.54666 -93.74622 35107 ft 544 kts 28°
2026-05-01 14:47 32.61136 -93.69999 35106 ft 542 kts 28°
2026-05-01 14:48 32.70826 -93.63066 35116 ft 541 kts 27°
2026-05-01 14:48 32.80536 -93.56163 35116 ft 542 kts 27°
2026-05-01 14:49 32.93429 -93.46791 35112 ft 547 kts 27°
2026-05-01 14:50 33.06570 -93.37515 35094 ft 549 kts 25°
2026-05-01 14:51 33.16514 -93.30760 35097 ft 552 kts 25°
2026-05-01 14:52 33.26530 -93.23894 35078 ft 553 kts 25°
2026-05-01 14:53 33.36549 -93.17026 35083 ft 553 kts 25°
2026-05-01 14:53 33.43215 -93.12417 35111 ft 554 kts 25°
2026-05-01 14:54 33.49907 -93.07794 35123 ft 554 kts 25°
2026-05-01 14:54 33.56592 -93.03087 35116 ft 561 kts 27°
2026-05-01 14:55 33.63298 -92.98327 35109 ft 559 kts 25°
2026-05-01 14:55 33.70037 -92.93693 35106 ft 558 kts 24°
2026-05-01 14:56 33.76723 -92.89073 35103 ft 560 kts 25°
2026-05-01 14:56 33.83469 -92.84432 35101 ft 558 kts 24°
2026-05-01 14:57 33.90163 -92.79721 35109 ft 557 kts 24°
2026-05-01 14:57 34.00275 -92.72607 35120 ft 564 kts 25°
2026-05-01 14:58 34.07020 -92.67779 35081 ft 564 kts 25°
2026-05-01 14:58 34.12651 -92.63792 35097 ft 564 kts 24°
2026-05-01 14:59 34.19455 -92.59036 35097 ft 566 kts 24°
2026-05-01 14:59 34.26291 -92.54235 35104 ft 568 kts 24°
2026-05-01 15:00 34.36545 -92.46967 35121 ft 571 kts 24°
2026-05-01 15:01 34.43413 -92.42082 35125 ft 572 kts 24°
2026-05-01 15:01 34.50282 -92.37191 35134 ft 574 kts 24°
2026-05-01 15:02 34.57182 -92.32268 35140 ft 575 kts 24°
2026-05-01 15:02 34.64034 -92.27371 35150 ft 575 kts 23°
2026-05-01 15:03 34.70938 -92.22426 35147 ft 576 kts 23°
2026-05-01 15:03 34.77846 -92.17479 35144 ft 576 kts 21°
2026-05-01 15:04 34.85076 -92.13768 35133 ft 551 kts
2026-05-01 15:04 34.92489 -92.11662 35149 ft 547 kts
2026-05-01 15:05 34.99910 -92.09617 35143 ft 547 kts
2026-05-01 15:05 35.07329 -92.07483 35139 ft 548 kts
2026-05-01 15:06 35.14740 -92.05290 35139 ft 547 kts
2026-05-01 15:06 35.22119 -92.03093 35142 ft 545 kts
2026-05-01 15:07 35.29457 -92.00917 35151 ft 544 kts
2026-05-01 15:07 35.36822 -91.98734 35145 ft 544 kts
2026-05-01 15:08 35.44159 -91.96554 35157 ft 543 kts
2026-05-01 15:08 35.51507 -91.94366 35160 ft 542 kts
2026-05-01 15:09 35.58844 -91.92177 35167 ft 543 kts
2026-05-01 15:09 35.66182 -91.89983 35179 ft 543 kts
2026-05-01 15:10 35.73532 -91.87782 35175 ft 543 kts 360°
2026-05-01 15:10 35.84503 -91.84487 35179 ft 543 kts 360°
2026-05-01 15:11 35.95519 -91.81168 35174 ft 543 kts 360°
2026-05-01 15:12 36.02870 -91.78951 35171 ft 543 kts 360°
2026-05-01 15:12 36.13885 -91.75617 35171 ft 543 kts 359°
2026-05-01 15:14 36.32232 -91.70070 35164 ft 541 kts 359°
2026-05-01 15:14 36.43145 -91.66824 35162 ft 540 kts 359°
2026-05-01 15:15 36.57750 -91.62460 35164 ft 538 kts 359°
2026-05-01 15:16 36.72297 -91.58087 35149 ft 536 kts 359°
2026-05-01 15:18 36.90394 -91.52622 35158 ft 533 kts 359°
2026-05-01 15:19 37.04758 -91.48269 35166 ft 531 kts 359°
2026-05-01 15:19 37.15514 -91.44997 35161 ft 529 kts 358°
2026-05-01 15:20 37.26234 -91.41726 35162 ft 527 kts 359°
2026-05-01 15:21 37.33370 -91.39544 35165 ft 526 kts 359°
2026-05-01 15:21 37.40437 -91.37379 35171 ft 525 kts 359°
2026-05-01 15:22 37.51091 -91.34105 35172 ft 524 kts 359°
2026-05-01 15:22 37.58185 -91.31920 35171 ft 523 kts 359°
2026-05-01 15:23 37.65239 -91.29742 35170 ft 522 kts 359°
2026-05-01 15:23 37.72293 -91.27562 35165 ft 521 kts 359°
2026-05-01 15:24 37.79326 -91.25384 35164 ft 520 kts 359°
2026-05-01 15:24 37.86356 -91.23203 35167 ft 519 kts 359°
2026-05-01 15:25 37.93312 -91.21040 35178 ft 518 kts 359°
2026-05-01 15:25 38.00311 -91.18859 35183 ft 517 kts 359°
2026-05-01 15:26 38.07299 -91.16679 35198 ft 516 kts 359°
2026-05-01 15:26 38.14267 -91.14499 35200 ft 515 kts 359°
2026-05-01 15:27 38.21212 -91.12321 35191 ft 514 kts 359°
2026-05-01 15:28 38.31606 -91.09054 35191 ft 512 kts 359°
2026-05-01 15:28 38.38511 -91.06881 35179 ft 511 kts 359°
2026-05-01 15:29 38.48801 -91.03633 35168 ft 509 kts 360°
2026-05-01 15:30 38.62529 -90.99283 35172 ft 507 kts
2026-05-01 15:31 38.76114 -90.93871 35167 ft 523 kts 12°
2026-05-01 15:31 38.82758 -90.90054 35158 ft 523 kts 12°
2026-05-01 15:32 38.96016 -90.82672 35152 ft 518 kts 11°
2026-05-01 15:34 39.15896 -90.71863 35152 ft 515 kts 11°